TimeCDT,TemperatureF,Dew PointF,Humidity,Sea Level PressureIn,VisibilityMPH,Wind Direction,Wind SpeedMPH,Gust SpeedMPH,PrecipitationIn,Events,Conditions,WindDirDegrees,DateUTC
12:54 AM,66.0,61.0,84,29.81,10.0,South,11.5,-,N/A,,Overcast,180,2013-05-28 05:54:00
1:54 AM,64.9,61.0,87,29.79,10.0,South,13.8,-,N/A,,Clear,180,2013-05-28 06:54:00
2:54 AM,64.9,62.1,90,29.78,10.0,South,13.8,-,N/A,,Clear,190,2013-05-28 07:54:00
3:54 AM,64.9,62.1,90,29.76,10.0,South,8.1,-,N/A,,Clear,180,2013-05-28 08:54:00
4:54 AM,64.4,62.6,94,29.80,10.0,South,9.2,-,N/A,,Clear,180,2013-05-28 09:54:00
5:35 AM,66.9,63.0,87,29.82,8.0,SW,11.5,-,N/A,Rain,Light Rain,220,2013-05-28 10:35:00
5:48 AM,66.2,64.4,94,29.83,7.0,SW,16.1,-,0.04,Rain-Thunderstorm,Light Thunderstorms and Rain,220,2013-05-28 10:48:00
5:54 AM,66.9,64.0,90,29.82,6.0,SW,12.7,-,0.05,Rain-Thunderstorm,Light Thunderstorms and Rain,230,2013-05-28 10:54:00
6:37 AM,66.9,64.0,90,29.84,4.0,SW,17.3,29.9,0.08,Rain,Rain,230,2013-05-28 11:37:00
6:54 AM,66.9,64.0,90,29.79,5.0,SSW,16.1,-,0.11,Rain,Light Rain,200,2013-05-28 11:54:00
7:54 AM,66.0,63.0,90,29.73,5.0,South,24.2,31.1,0.07,Rain,Rain,170,2013-05-28 12:54:00
8:54 AM,66.9,64.0,90,29.80,10.0,SSW,15.0,-,0.01,Rain,Light Rain,200,2013-05-28 13:54:00
9:04 AM,66.9,64.0,90,29.81,6.0,SSW,11.5,-,0.01,Rain-Thunderstorm,Thunderstorms and Rain,210,2013-05-28 14:04:00
9:38 AM,69.1,66.0,90,29.81,9.0,SSW,9.2,-,0.02,,Overcast,200,2013-05-28 14:38:00
9:54 AM,70.0,66.0,87,29.80,8.0,SSW,10.4,-,0.02,,Overcast,200,2013-05-28 14:54:00
10:54 AM,73.0,66.9,81,29.76,10.0,SSW,18.4,27.6,N/A,,Overcast,200,2013-05-28 15:54:00
11:54 AM,75.0,66.0,73,29.77,10.0,SSW,23.0,28.8,N/A,,Overcast,210,2013-05-28 16:54:00
12:54 PM,75.9,66.9,74,29.76,10.0,SSW,18.4,24.2,N/A,,Overcast,210,2013-05-28 17:54:00
1:54 PM,75.0,66.0,73,29.77,10.0,SSW,15.0,23.0,N/A,,Overcast,200,2013-05-28 18:54:00
2:36 PM,75.0,66.0,73,29.79,10.0,SW,18.4,27.6,N/A,,Overcast,230,2013-05-28 19:36:00
2:54 PM,75.9,66.9,74,29.77,10.0,SW,21.9,32.2,N/A,,Overcast,230,2013-05-28 19:54:00
3:54 PM,75.0,66.9,76,29.79,10.0,SW,18.4,25.3,N/A,,Overcast,230,2013-05-28 20:54:00
4:54 PM,75.0,68.0,79,29.79,10.0,SW,15.0,-,N/A,,Overcast,230,2013-05-28 21:54:00
5:38 PM,75.0,68.0,79,29.78,10.0,SW,10.4,-,N/A,,Overcast,220,2013-05-28 22:38:00
5:54 PM,75.0,68.0,79,29.76,10.0,SSW,10.4,-,N/A,,Overcast,210,2013-05-28 22:54:00
6:54 PM,75.9,69.1,79,29.78,9.0,SW,11.5,-,N/A,,Mostly Cloudy,220,2013-05-28 23:54:00
7:54 PM,73.0,64.9,76,29.79,10.0,NNW,4.6,-,0.00,,Mostly Cloudy,330,2013-05-29 00:54:00
8:54 PM,68.0,62.1,81,29.79,10.0,NE,5.8,-,N/A,,Scattered Clouds,50,2013-05-29 01:54:00
9:38 PM,68.0,62.1,81,29.84,10.0,Calm,Calm,-,N/A,,Clear,0,2013-05-29 02:38:00
9:54 PM,66.9,63.0,87,29.84,10.0,Calm,Calm,-,0.00,Rain,Light Rain,0,2013-05-29 02:54:00
10:54 PM,66.9,64.0,90,29.85,10.0,ESE,3.5,-,0.02,,Overcast,110,2013-05-29 03:54:00
11:54 PM,69.1,63.0,81,29.92,9.0,West,16.1,-,0.00,Rain-Thunderstorm,Thunderstorms and Rain,260,2013-05-29 04:54:00